Skip Page Navigation
NASA JPL Caltech
NASA Logo - Jet Propulsion Laboratory + View the NASA Portal
+ Near-Earth Object (NEO) Program
Search JPL
JPL Home Earth Solar System Stars & Galaxies Technology
JPL Solar System Dynamics
BODIES ORBITS EPHEMERIDES TOOLS PHYSICAL DATA DISCOVERY FAQ SITE MAP
JPL Small-Body Database Browser
Search: [ help ]  
(1994 XL1)
Classification: Aten [NEO, PHA]          SPK-ID: 3005970
Ephemeris | Orbit Diagram | Orbital Elements | Physical Parameters | Close-Approach Data ]

[ hide orbit diagram ]
Orbit Diagram
Note: Make sure you have Java enabled on your browser to see the applet. This applet is provided as a 3D orbit visualization tool. The applet was implemented using 2-body methods, and hence should not be used for determining accurate long-term trajectories (over several years or decades) or planetary encounter circumstances. For accurate long-term ephemerides, please instead use our Horizons system.
Orbit Viewer

Additional Notes: the orbits shown in the applet are color coded. The planets are white lines, and the asteroid/comet is a blue line. The bright white line indicates the portion of the orbit that is above the ecliptic plane, and the darker portion is below the ecliptic plane. Likewise for the asteroid/comet orbit, the light blue indicates the portion above the ecliptic plane, and the dark blue the portion below the ecliptic plane.

Orbit Viewer applet originally written and kindly provided by Osamu Ajiki (AstroArts), and further modified by Ron Baalke (JPL).


Orbital Elements at Epoch 2456400.5 (2013-Apr-18.0) TDB
Reference: JPL 15 (heliocentric ecliptic J2000)
 Element Value Uncertainty (1-sigma)   Units 
e .5262583538954032 1.2282e-07  
a .6708893422492367 1.1436e-09 AU
q .3178282213511836 8.2113e-08 AU
i 28.16729114706236 5.4549e-05 deg
node 252.6789347822296 1.0385e-05 deg
peri 356.5457042481659 3.3096e-05 deg
M 345.5341598452951 8.3882e-05 deg
tp 2456408.565214590080
(2013-Apr-26.06521459)
4.6775e-05 JED
period 200.7126597126556
0.55
5.132e-07
1.405e-09
d
yr
n 1.793608836210847 4.586e-09 deg/d
Q 1.02395046314729 1.7454e-09 AU
  Orbit Determination Parameters
   # obs. used (total)      107  
   data-arc span      6220 days (17.03 yr)  
   first obs. used      1994-12-06  
   last obs. used      2011-12-17  
   planetary ephem.      DE405  
   SB-pert. ephem.      SB405-CPV-2  
   condition code      0  
   fit RMS      .69734  
   data source      ORB  
   producer      Otto Matic  
   solution date      2011-Dec-17 23:50:02  

Additional Information
 Earth MOID = .0356668 AU 
 T_jup = 8.294 
[ show covariance matrix ]

Ephemeris | Orbit Diagram | Orbital Elements | Physical Parameters | Close-Approach Data ]

Physical Parameter Table
Parameter Symbol Value Units Sigma Reference Notes
absolute magnitude H 20.831 mag .70182 15 autocmod 2.5b

[ show close-approach data ]
Ephemeris | Orbit Diagram | Orbital Elements | Physical Parameters | Close-Approach Data ]
ABOUT SSD CREDITS/AWARDS PRIVACY/COPYRIGHT GLOSSARY LINKS
FirstGov 2013-May-25 05:17 UT
(server date/time)  
NASA Home Page
Site Manager:   Donald K. Yeomans
Webmaster  Alan B. Chamberlin